Snowfall_Accumulation
0.2 1.4 3.7 1.3 0.7 1.1 1.0 1.4 1.6 0.4 0.0 0.1 0.2 0.4 0.3 0.0 0.0 0.0 0.0 0.0 0.0 0.0 0.0 0.0 0.0 0.0 0.0 0.0 0.0 0.0 0.0 0.0 0.0 0.0 0.0 0.0 0.0 0.0 0.0 0.0 0.0 0.0 0.0 0.0
2.1 3.4 1.0 0.4 0.5 1.1 1.3 1.9 1.7 0.6 0.0 0.3 0.3 0.4 0.0 0.0 0.0 0.0 0.0 0.0 0.0 0.0 0.0 0.0 0.0 0.0 0.0 0.0 0.0 0.0 0.0 0.0 0.0 0.0 0.0 0.0 0.0 0.0 0.0 0.0 0.0 0.0 0.0 0.0
4.0 1.6 0.1 0.5 0.8 1.7 1.7 2.0 1.2 1.5 0.3 0.1 0.4 1.0 0.5 0.4 0.0 0.0 0.0 0.0 0.0 0.0 0.0 0.0 0.0 0.0 0.0 0.0 0.0 0.0 0.0 0.0 0.0 0.0 0.0 0.0 0.0 0.0 0.0 0.0 0.0 0.0 0.0 0.0
1.4 0.5 0.2 0.9 0.8 1.4 2.5 0.4 0.5 0.9 1.5 2.9 1.4 4.6 0.9 0.5 0.4 0.2 0.0 0.0 0.0 0.0 0.0 0.0 0.0 0.0 0.0 0.0 0.0 0.0 0.0 0.0 0.0 0.0 0.0 0.0 0.0 0.0 0.0 0.0 0.0 0.0 0.0 0.0
2.7 0.3 0.5 1.8 0.5 0.7 1.3 0.3 0.5 0.7 1.9 3.4 1.3 4.1 2.3 1.0 1.1 0.3 0.3 0.1 0.0 0.0 0.0 0.0 0.0 0.0 0.0 0.0 0.0 0.0 0.0 0.0 0.0 0.0 0.0 0.0 0.0 0.0 0.0 0.0 0.0 0.0 0.0 0.0
0.7 0.1 0.2 0.3 0.1 0.2 0.3 0.2 0.6 1.3 3.3 7.5 2.2 3.6 3.3 2.4 2.0 0.4 0.2 0.2 0.1 0.0 0.0 0.0 0.0 0.0 0.0 0.0 0.0 0.0 0.0 0.0 0.0 0.0 0.0 0.0 0.0 0.0 0.0 0.0 0.0 0.0 0.0 0.0
6.3 1.2 0.3 0.1 1.5 0.7 1.2 7.2 14.1 13.0 11.2 5.2 1.2 2.2 3.1 1.1 0.3 0.4 0.2 0.2 0.2 0.1 0.1 0.0 0.0 0.0 0.0 0.0 0.0 0.0 0.0 0.0 0.0 0.0 0.0 0.0 0.0 0.0 0.0 0.0 0.0 0.0 0.0 0.0
9.4 7.4 1.0 0.3 0.6 1.5 1.7 4.8 10.7 9.2 6.0 2.5 1.4 2.3 2.5 0.2 0.1 0.2 0.2 0.3 0.1 0.1 0.1 0.1 0.0 0.0 0.0 0.0 0.0 0.0 0.0 0.0 0.0 0.0 0.0 0.0 0.0 0.0 0.0 0.0 0.0 0.0 0.0 0.0
6.6 5.6 0.2 0.1 0.2 0.8 2.8 4.2 3.3 7.1 5.1 3.3 2.0 1.8 1.0 0.3 0.3 0.3 0.3 0.2 0.2 0.1 0.1 0.1 0.1 0.0 0.0 0.0 0.0 0.0 0.0 0.0 0.0 0.0 0.0 0.0 0.0 0.0 0.0 0.0 0.0 0.0 0.0 0.0
3.1 6.6 1.5 0.1 0.2 0.3 0.4 1.7 5.5 11.0 8.4 4.6 1.9 1.6 2.4 1.9 1.2 0.8 0.3 0.2 0.1 0.1 0.1 0.1 0.0 0.0 0.0 0.0 0.0 0.0 0.0 0.0 0.0 0.0 0.0 0.0 0.0 0.0 0.0 0.0 0.0 0.0 0.0 0.0
0.9 7.6 5.0 1.9 2.7 3.1 2.6 4.4 6.7 8.3 6.7 6.0 3.6 2.1 1.3 1.3 0.9 0.7 0.2 0.1 0.1 0.1 0.1 0.0 0.0 0.0 0.0 0.0 0.0 0.0 0.0 0.0 0.0 0.0 0.0 0.0 0.0 0.0 0.0 0.0 0.0 0.0 0.0 0.0
0.7 5.7 6.8 2.6 0.1 0.1 1.4 3.1 5.5 10.3 7.3 5.6 4.6 2.5 0.2 0.6 0.3 0.1 0.1 0.1 0.1 0.1 0.0 0.0 0.0 0.0 0.0 0.0 0.0 0.0 0.0 0.0 0.0 0.0 0.0 0.0 0.0 0.0 0.0 0.0 0.0 0.0 0.0 0.0
0.9 6.9 9.1 4.1 1.5 0.2 3.5 2.3 2.6 5.7 10.7 8.6 6.5 2.7 0.1 0.1 0.1 0.1 0.1 0.1 0.1 0.1 0.0 0.0 0.1 0.0 0.0 0.0 0.0 0.0 0.0 0.0 0.0 0.0 0.0 0.0 0.0 0.0 0.0 0.0 0.0 0.0 0.0 0.0
0.3 6.4 6.8 5.1 4.0 4.3 4.4 2.7 3.3 9.4 14.4 7.6 3.4 1.6 0.5 0.2 0.4 0.2 0.1 0.1 0.1 0.0 0.1 0.0 0.1 0.0 0.0 0.0 0.0 0.0 0.0 0.1 0.1 0.1 0.0 0.0 0.0 0.0 0.0 0.0 0.0 0.0 0.0 0.0
0.4 7.2 5.4 2.2 0.8 2.2 3.4 3.1 2.7 6.3 6.9 7.4 2.9 1.4 0.7 0.5 0.5 0.2 0.1 0.1 0.1 0.1 0.0 0.1 0.0 0.0 0.0 0.0 0.0 0.0 0.1 0.0 0.0 0.0 0.0 0.0 0.0 0.0 0.0 0.0 0.0 0.0 0.0 0.0
0.3 4.1 4.5 3.7 0.4 1.0 2.8 1.4 1.2 1.9 1.9 3.2 2.3 1.5 0.3 0.3 0.2 0.1 0.1 0.1 0.0 0.0 0.1 0.0 0.0 0.0 0.0 0.0 0.0 0.0 0.0 0.0 0.0 0.0 0.0 0.0 0.0 0.0 0.0 0.0 0.0 0.0 0.0 0.0
0.6 1.6 8.2 5.0 1.6 2.4 4.7 0.6 0.9 1.3 1.1 1.8 2.8 0.8 0.2 0.1 0.1 0.2 0.1 0.1 0.0 0.0 0.0 0.0 0.0 0.0 0.0 0.0 0.0 0.0 0.0 0.0 0.0 0.0 0.0 0.0 0.0 0.0 0.0 0.0 0.0 0.0 0.1 0.1
0.6 2.1 7.9 5.8 3.8 5.4 1.1 0.1 0.1 0.5 0.8 0.6 0.4 0.3 0.1 0.1 0.1 0.1 0.1 0.1 0.0 0.0 0.0 0.0 0.0 0.0 0.0 0.0 0.0 0.0 0.0 0.0 0.0 0.0 0.0 0.0 0.0 0.0 0.1 0.1 0.4 0.5 0.3 0.4
0.1 1.2 6.6 6.7 4.7 2.8 0.2 0.1 0.2 0.4 1.0 0.5 0.5 0.1 0.1 0.0 0.0 0.0 0.0 0.1 0.1 0.1 0.0 0.0 0.0 0.0 0.0 0.0 0.1 0.1 0.1 0.1 0.1 0.1 0.1 0.1 0.1 0.1 0.2 0.4 0.4 0.7 1.1 1.3
0.1 0.6 4.7 6.3 5.2 2.3 0.8 0.1 0.1 0.2 0.8 0.2 0.1 0.1 0.1 0.1 0.4 0.2 0.1 0.1 0.0 0.0 0.0 0.0 0.0 0.0 0.0 0.1 0.0 0.1 0.4 0.6 0.2 0.2 0.5 0.5 0.4 0.7 1.0 1.0 1.2 1.0 1.1 1.4
1.3 2.9 5.1 4.7 4.5 1.1 0.4 0.2 0.2 1.1 2.9 0.3 0.2 0.3 0.2 0.7 0.4 0.2 0.0 0.0 0.0 0.1 0.0 0.0 0.1 0.1 0.1 0.1 0.1 0.3 0.4 0.9 1.0 0.8 0.8 0.9 1.2 1.1 1.5 1.2 1.0 1.0 1.1 1.0
0.8 1.7 2.0 2.4 3.8 1.6 0.4 0.4 0.9 1.0 0.3 0.2 0.3 0.2 0.1 0.1 0.0 0.0 0.1 0.1 0.1 0.1 0.1 0.1 0.3 0.3 0.3 0.6 1.1 1.3 1.5 1.7 1.5 1.6 2.0 2.1 1.4 1.3 1.4 1.1 1.0 1.0 0.8 0.6
0.6 0.9 1.1 1.3 1.2 0.6 0.4 0.4 0.2 0.1 0.2 0.1 0.2 0.1 0.1 0.1 0.1 0.0 0.1 0.0 0.1 0.0 0.1 0.1 0.2 0.4 0.4 0.7 0.9 1.1 1.5 0.8 1.5 1.9 1.7 1.3 0.8 0.7 0.6 0.6 0.5 0.6 0.5 0.4
0.4 0.4 0.7 0.8 0.3 0.2 0.3 0.1 0.0 0.1 0.1 0.0 0.0 0.0 0.1 0.1 0.1 0.1 0.0 0.0 0.1 0.1 0.1 0.2 0.4 0.4 0.6 0.5 0.5 0.9 1.1 0.9 0.7 0.9 0.7 0.7 0.5 0.4 0.3 0.2 0.2 0.2 0.3 0.4
0.5 0.6 0.9 0.8 0.3 0.3 0.2 0.1 0.1 0.0 0.0 0.0 0.0 0.0 0.0 0.1 0.1 0.1 0.0 0.0 0.0 0.0 0.1 0.1 0.2 0.3 0.4 0.5 0.5 0.5 0.3 0.3 0.3 0.3 0.3 0.2 0.1 0.1 0.1 0.2 0.2 0.2 0.1 0.2
0.3 0.4 0.9 0.8 0.3 0.4 0.2 0.1 0.0 0.1 0.0 0.0 0.1 0.0 0.0 0.0 0.1 0.1 0.0 0.0 0.1 0.1 0.1 0.1 0.1 0.1 0.1 0.1 0.2 0.1 0.1 0.1 0.1 0.1 0.1 0.2 0.3 0.1 0.2 0.2 0.3 0.1 0.0 0.1